QPF
0.02 0.03 0.04 0.05 0.06 0.08 0.12 0.14 0.13 0.13 0.14 0.18 0.16 0.11 0.07 0.04 0.05 0.13 0.23 0.11 0.04 0.02 0.03 0.03 0.03 0.04 0.04 0.04 0.05 0.07 0.06 0.05 0.05 0.04 0.03 0.03 0.02 0.01 0.00 0.00 0.00 0.00 0.00
0.01 0.01 0.02 0.02 0.03 0.05 0.07 0.09 0.12 0.12 0.13 0.14 0.13 0.12 0.09 0.07 0.05 0.06 0.14 0.13 0.05 0.02 0.02 0.03 0.03 0.04 0.05 0.06 0.05 0.06 0.06 0.06 0.06 0.04 0.03 0.03 0.03 0.02 0.01 0.00 0.00 0.00 0.00
0.01 0.01 0.02 0.01 0.02 0.03 0.03 0.04 0.07 0.09 0.09 0.11 0.11 0.11 0.11 0.08 0.07 0.06 0.08 0.11 0.09 0.05 0.03 0.03 0.04 0.04 0.05 0.05 0.04 0.05 0.06 0.05 0.05 0.04 0.03 0.03 0.02 0.02 0.01 0.01 0.01 0.00 0.00
0.01 0.01 0.02 0.02 0.01 0.01 0.02 0.02 0.03 0.05 0.07 0.08 0.08 0.08 0.10 0.08 0.07 0.06 0.05 0.06 0.08 0.10 0.08 0.05 0.04 0.04 0.04 0.05 0.04 0.05 0.06 0.05 0.05 0.04 0.03 0.03 0.03 0.02 0.02 0.01 0.01 0.00 0.00
0.01 0.01 0.01 0.01 0.01 0.01 0.01 0.01 0.02 0.02 0.03 0.03 0.03 0.05 0.04 0.04 0.03 0.03 0.03 0.03 0.05 0.08 0.13 0.11 0.04 0.03 0.03 0.04 0.07 0.08 0.07 0.06 0.05 0.05 0.04 0.03 0.03 0.03 0.02 0.02 0.01 0.01 0.00
0.00 0.01 0.01 0.01 0.01 0.01 0.00 0.01 0.01 0.02 0.02 0.02 0.01 0.02 0.02 0.02 0.01 0.02 0.02 0.03 0.04 0.05 0.07 0.07 0.06 0.04 0.04 0.05 0.06 0.07 0.08 0.07 0.06 0.05 0.05 0.04 0.04 0.04 0.03 0.02 0.02 0.01 0.01
0.00 0.01 0.01 0.01 0.01 0.01 0.01 0.00 0.01 0.01 0.01 0.00 0.00 0.00 0.00 0.00 0.01 0.01 0.01 0.02 0.03 0.03 0.05 0.08 0.08 0.10 0.08 0.05 0.04 0.05 0.07 0.09 0.09 0.07 0.06 0.05 0.05 0.04 0.03 0.02 0.02 0.01 0.01
0.00 0.00 0.00 0.00 0.00 0.00 0.00 0.00 0.00 0.00 0.00 0.00 0.00 0.00 0.01 0.02 0.01 0.01 0.00 0.01 0.01 0.01 0.02 0.04 0.05 0.06 0.06 0.08 0.05 0.04 0.07 0.08 0.10 0.10 0.08 0.06 0.06 0.05 0.04 0.03 0.01 0.01 0.00
0.00 0.00 0.00 0.00 0.00 0.00 0.00 0.00 0.00 0.00 0.00 0.00 0.00 0.00 0.01 0.02 0.02 0.01 0.00 0.00 0.00 0.00 0.01 0.01 0.02 0.03 0.04 0.06 0.08 0.07 0.07 0.06 0.08 0.10 0.10 0.09 0.06 0.05 0.04 0.03 0.03 0.01 0.00
0.00 0.00 0.00 0.00 0.00 0.00 0.00 0.00 0.00 0.00 0.00 0.00 0.00 0.00 0.00 0.01 0.02 0.02 0.01 0.00 0.00 0.00 0.00 0.00 0.01 0.02 0.02 0.03 0.06 0.05 0.04 0.04 0.05 0.07 0.09 0.09 0.08 0.06 0.04 0.04 0.04 0.04 0.02
0.00 0.00 0.00 0.00 0.00 0.00 0.00 0.00 0.00 0.00 0.00 0.00 0.00 0.00 0.00 0.00 0.00 0.00 0.02 0.01 0.00 0.00 0.00 0.00 0.00 0.01 0.01 0.02 0.04 0.04 0.02 0.01 0.02 0.03 0.05 0.06 0.07 0.07 0.06 0.05 0.07 0.07 0.05
0.00 0.00 0.00 0.00 0.00 0.00 0.00 0.00 0.00 0.00 0.00 0.00 0.00 0.00 0.00 0.00 0.00 0.00 0.00 0.01 0.00 0.00 0.00 0.00 0.00 0.00 0.00 0.01 0.01 0.01 0.01 0.01 0.01 0.01 0.01 0.02 0.03 0.04 0.05 0.05 0.06 0.08 0.09
0.00 0.00 0.00 0.00 0.00 0.00 0.00 0.00 0.00 0.00 0.00 0.00 0.00 0.00 0.00 0.00 0.00 0.00 0.00 0.00 0.00 0.00 0.00 0.00 0.00 0.00 0.00 0.00 0.00 0.00 0.00 0.00 0.00 0.00 0.00 0.00 0.01 0.01 0.02 0.03 0.05 0.07 0.09
0.00 0.00 0.00 0.00 0.00 0.00 0.00 0.00 0.00 0.00 0.00 0.00 0.00 0.00 0.00 0.00 0.00 0.00 0.00 0.00 0.00 0.00 0.00 0.00 0.00 0.00 0.00 0.00 0.00 0.00 0.00 0.00 0.00 0.00 0.00 0.00 0.00 0.00 0.01 0.01 0.02 0.03 0.04
0.00 0.00 0.00 0.00 0.00 0.00 0.00 0.00 0.00 0.00 0.00 0.00 0.00 0.00 0.00 0.00 0.00 0.00 0.00 0.00 0.00 0.00 0.00 0.00 0.00 0.00 0.00 0.00 0.00 0.00 0.00 0.00 0.00 0.00 0.00 0.00 0.00 0.00 0.00 0.00 0.01 0.01 0.02
0.00 0.00 0.00 0.00 0.00 0.00 0.00 0.00 0.00 0.00 0.00 0.00 0.00 0.00 0.00 0.00 0.00 0.00 0.00 0.00 0.00 0.00 0.00 0.00 0.00 0.00 0.00 0.00 0.00 0.00 0.00 0.00 0.00 0.00 0.00 0.00 0.00 0.00 0.00 0.00 0.00 0.01 0.01
0.00 0.00 0.00 0.00 0.00 0.00 0.00 0.00 0.00 0.00 0.00 0.00 0.00 0.00 0.00 0.00 0.00 0.00 0.00 0.00 0.00 0.00 0.00 0.00 0.00 0.00 0.00 0.00 0.00 0.00 0.00 0.00 0.00 0.00 0.00 0.00 0.00 0.00 0.00 0.00 0.00 0.00 0.00
0.01 0.01 0.01 0.00 0.00 0.00 0.00 0.00 0.00 0.00 0.00 0.00 0.00 0.00 0.00 0.00 0.00 0.00 0.00 0.00 0.00 0.00 0.00 0.00 0.00 0.00 0.00 0.00 0.00 0.00 0.00 0.00 0.00 0.00 0.00 0.00 0.00 0.00 0.00 0.00 0.00 0.00 0.00
0.03 0.02 0.02 0.01 0.01 0.01 0.00 0.00 0.00 0.00 0.00 0.00 0.00 0.00 0.00 0.00 0.00 0.00 0.00 0.00 0.00 0.00 0.00 0.00 0.00 0.00 0.00 0.00 0.00 0.00 0.00 0.00 0.00 0.00 0.00 0.00 0.00 0.00 0.00 0.00 0.00 0.00 0.00
0.04 0.04 0.04 0.03 0.02 0.01 0.01 0.01 0.00 0.00 0.00 0.00 0.00 0.00 0.00 0.00 0.00 0.00 0.01 0.00 0.00 0.00 0.00 0.00 0.00 0.00 0.00 0.00 0.00 0.00 0.00 0.00 0.00 0.00 0.00 0.00 0.00 0.00 0.00 0.00 0.00 0.00 0.00
0.07 0.07 0.06 0.04 0.03 0.02 0.02 0.01 0.01 0.01 0.01 0.00 0.00 0.00 0.00 0.00 0.00 0.00 0.00 0.01 0.01 0.01 0.01 0.00 0.00 0.00 0.00 0.00 0.00 0.00 0.00 0.00 0.00 0.00 0.00 0.00 0.00 0.00 0.00 0.00 0.00 0.00 0.00
0.11 0.11 0.07 0.06 0.04 0.03 0.04 0.04 0.02 0.01 0.01 0.01 0.01 0.01 0.01 0.00 0.00 0.00 0.00 0.00 0.01 0.01 0.01 0.01 0.00 0.00 0.00 0.00 0.00 0.00 0.00 0.00 0.00 0.00 0.00 0.00 0.00 0.00 0.00 0.00 0.00 0.00 0.00
0.13 0.12 0.10 0.08 0.06 0.05 0.07 0.06 0.04 0.02 0.01 0.02 0.02 0.02 0.01 0.00 0.01 0.01 0.02 0.01 0.00 0.00 0.00 0.00 0.00 0.00 0.00 0.01 0.02 0.01 0.01 0.01 0.00 0.00 0.00 0.00 0.00 0.00 0.00 0.00 0.00 0.00 0.00
0.14 0.13 0.10 0.08 0.07 0.05 0.05 0.04 0.04 0.03 0.01 0.01 0.01 0.02 0.02 0.02 0.01 0.02 0.04 0.04 0.03 0.02 0.01 0.01 0.00 0.00 0.00 0.00 0.01 0.01 0.01 0.01 0.00 0.00 0.00 0.00 0.00 0.00 0.00 0.00 0.00 0.00 0.00
0.16 0.13 0.10 0.09 0.09 0.08 0.06 0.05 0.04 0.02 0.01 0.01 0.01 0.01 0.02 0.03 0.03 0.03 0.03 0.04 0.04 0.04 0.03 0.02 0.01 0.01 0.00 0.00 0.01 0.01 0.01 0.01 0.00 0.00 0.00 0.00 0.00 0.00 0.00 0.00 0.00 0.00 0.00
0.09 0.08 0.07 0.08 0.08 0.08 0.07 0.06 0.04 0.02 0.01 0.01 0.01 0.01 0.02 0.02 0.02 0.03 0.04 0.05 0.05 0.04 0.05 0.06 0.05 0.03 0.02 0.01 0.01 0.01 0.01 0.01 0.00 0.00 0.00 0.00 0.00 0.00 0.00 0.00 0.00 0.00 0.00
MSLP
1015.91 1015.82 1015.67 1015.52 1015.44 1015.49 1015.68 1015.99 1016.37 1016.76 1017.08 1017.30 1017.37 1017.32 1017.20 1017.05 1016.95 1016.95 1017.09 1017.37 1017.76 1018.22 1018.70 1019.15 1019.54 1019.86 1020.11 1020.30 1020.45 1020.60 1020.77 1020.97 1021.22 1021.51 1021.85 1022.20 1022.57 1022.93 1023.26 1023.54 1023.77 1023.94 1024.07
1016.06 1015.96 1015.79 1015.61 1015.49 1015.49 1015.63 1015.90 1016.25 1016.65 1017.00 1017.27 1017.41 1017.42 1017.34 1017.20 1017.08 1017.02 1017.08 1017.27 1017.58 1017.98 1018.44 1018.90 1019.34 1019.71 1020.00 1020.23 1020.40 1020.55 1020.69 1020.86 1021.07 1021.34 1021.66 1022.03 1022.42 1022.81 1023.17 1023.48 1023.73 1023.92 1024.06
1016.31 1016.22 1016.06 1015.87 1015.74 1015.70 1015.78 1016.00 1016.31 1016.68 1017.04 1017.33 1017.51 1017.57 1017.52 1017.39 1017.25 1017.14 1017.12 1017.21 1017.43 1017.76 1018.17 1018.63 1019.08 1019.49 1019.83 1020.10 1020.31 1020.46 1020.60 1020.75 1020.94 1021.18 1021.49 1021.84 1022.24 1022.64 1023.02 1023.36 1023.64 1023.85 1024.02
1016.61 1016.55 1016.42 1016.27 1016.14 1016.08 1016.12 1016.28 1016.53 1016.85 1017.17 1017.46 1017.66 1017.75 1017.73 1017.62 1017.46 1017.31 1017.21 1017.21 1017.33 1017.57 1017.92 1018.33 1018.78 1019.21 1019.59 1019.91 1020.15 1020.34 1020.49 1020.63 1020.80 1021.02 1021.31 1021.65 1022.03 1022.43 1022.82 1023.18 1023.48 1023.73 1023.92
1016.87 1016.87 1016.81 1016.71 1016.62 1016.56 1016.57 1016.67 1016.86 1017.10 1017.38 1017.63 1017.83 1017.94 1017.95 1017.86 1017.70 1017.52 1017.37 1017.29 1017.31 1017.45 1017.71 1018.06 1018.47 1018.89 1019.29 1019.64 1019.93 1020.15 1020.33 1020.48 1020.66 1020.87 1021.13 1021.44 1021.81 1022.19 1022.58 1022.94 1023.26 1023.53 1023.77
1017.04 1017.11 1017.13 1017.12 1017.08 1017.05 1017.06 1017.11 1017.22 1017.40 1017.60 1017.82 1018.00 1018.11 1018.15 1018.09 1017.96 1017.77 1017.58 1017.44 1017.37 1017.41 1017.56 1017.83 1018.17 1018.56 1018.96 1019.32 1019.64 1019.90 1020.12 1020.30 1020.49 1020.69 1020.94 1021.23 1021.56 1021.92 1022.28 1022.63 1022.96 1023.26 1023.52
1017.07 1017.22 1017.34 1017.42 1017.46 1017.48 1017.49 1017.51 1017.57 1017.67 1017.81 1017.97 1018.13 1018.26 1018.32 1018.31 1018.21 1018.05 1017.85 1017.66 1017.52 1017.46 1017.51 1017.67 1017.93 1018.25 1018.61 1018.98 1019.31 1019.61 1019.86 1020.09 1020.29 1020.51 1020.74 1021.00 1021.30 1021.61 1021.94 1022.26 1022.58 1022.88 1023.17
1016.98 1017.19 1017.40 1017.58 1017.71 1017.79 1017.82 1017.84 1017.85 1017.89 1017.97 1018.09 1018.23 1018.36 1018.46 1018.50 1018.46 1018.33 1018.15 1017.94 1017.75 1017.61 1017.55 1017.60 1017.76 1018.00 1018.31 1018.64 1018.98 1019.30 1019.59 1019.85 1020.08 1020.31 1020.53 1020.76 1021.01 1021.28 1021.55 1021.83 1022.12 1022.41 1022.70
1016.81 1017.07 1017.36 1017.62 1017.83 1017.98 1018.05 1018.07 1018.06 1018.07 1018.10 1018.18 1018.30 1018.45 1018.58 1018.67 1018.69 1018.62 1018.47 1018.26 1018.04 1017.84 1017.69 1017.64 1017.68 1017.84 1018.07 1018.36 1018.68 1019.01 1019.32 1019.60 1019.86 1020.09 1020.31 1020.51 1020.71 1020.92 1021.12 1021.34 1021.58 1021.84 1022.11
1016.64 1016.93 1017.26 1017.59 1017.87 1018.07 1018.19 1018.23 1018.23 1018.21 1018.22 1018.27 1018.39 1018.54 1018.70 1018.83 1018.90 1018.89 1018.79 1018.60 1018.37 1018.12 1017.91 1017.77 1017.72 1017.77 1017.92 1018.15 1018.44 1018.75 1019.06 1019.36 1019.63 1019.87 1020.07 1020.24 1020.40 1020.54 1020.68 1020.83 1021.00 1021.21 1021.46
1016.51 1016.81 1017.17 1017.53 1017.86 1018.12 1018.28 1018.36 1018.37 1018.35 1018.35 1018.39 1018.49 1018.64 1018.82 1018.99 1019.10 1019.14 1019.08 1018.92 1018.70 1018.44 1018.18 1017.97 1017.83 1017.80 1017.87 1018.03 1018.26 1018.54 1018.84 1019.13 1019.40 1019.63 1019.82 1019.96 1020.07 1020.15 1020.23 1020.31 1020.42 1020.57 1020.78
1016.47 1016.75 1017.10 1017.49 1017.85 1018.14 1018.35 1018.46 1018.50 1018.50 1018.50 1018.54 1018.63 1018.77 1018.95 1019.13 1019.27 1019.34 1019.32 1019.20 1018.99 1018.73 1018.45 1018.20 1018.00 1017.89 1017.89 1017.97 1018.14 1018.37 1018.63 1018.90 1019.15 1019.37 1019.54 1019.66 1019.73 1019.77 1019.79 1019.82 1019.87 1019.97 1020.13
1016.46 1016.72 1017.06 1017.44 1017.81 1018.13 1018.38 1018.53 1018.61 1018.64 1018.65 1018.69 1018.77 1018.90 1019.06 1019.24 1019.39 1019.47 1019.48 1019.39 1019.21 1018.97 1018.69 1018.42 1018.19 1018.02 1017.95 1017.96 1018.06 1018.23 1018.44 1018.66 1018.89 1019.08 1019.23 1019.33 1019.38 1019.39 1019.38 1019.37 1019.39 1019.45 1019.57
1016.44 1016.67 1016.98 1017.34 1017.72 1018.06 1018.33 1018.53 1018.65 1018.72 1018.75 1018.80 1018.87 1018.98 1019.12 1019.27 1019.41 1019.50 1019.52 1019.46 1019.31 1019.10 1018.85 1018.59 1018.34 1018.15 1018.02 1017.97 1017.99 1018.09 1018.23 1018.40 1018.58 1018.74 1018.87 1018.96 1019.00 1019.01 1018.99 1018.97 1018.97 1019.01 1019.11
1016.30 1016.51 1016.80 1017.14 1017.50 1017.85 1018.15 1018.39 1018.56 1018.66 1018.73 1018.79 1018.86 1018.95 1019.06 1019.19 1019.30 1019.39 1019.42 1019.38 1019.28 1019.11 1018.90 1018.67 1018.43 1018.22 1018.06 1017.95 1017.91 1017.93 1018.00 1018.11 1018.24 1018.36 1018.47 1018.55 1018.60 1018.61 1018.60 1018.60 1018.60 1018.65 1018.74
1015.99 1016.18 1016.45 1016.77 1017.12 1017.47 1017.80 1018.06 1018.27 1018.42 1018.52 1018.60 1018.67 1018.75 1018.84 1018.94 1019.04 1019.11 1019.16 1019.15 1019.09 1018.98 1018.82 1018.63 1018.42 1018.22 1018.04 1017.89 1017.79 1017.74 1017.74 1017.78 1017.85 1017.94 1018.02 1018.09 1018.15 1018.18 1018.20 1018.22 1018.25 1018.31 1018.41
1015.48 1015.67 1015.92 1016.22 1016.56 1016.90 1017.23 1017.52 1017.76 1017.95 1018.09 1018.19 1018.27 1018.35 1018.43 1018.51 1018.59 1018.67 1018.72 1018.75 1018.74 1018.69 1018.59 1018.46 1018.29 1018.11 1017.93 1017.76 1017.62 1017.51 1017.45 1017.42 1017.44 1017.48 1017.53 1017.59 1017.65 1017.70 1017.74 1017.79 1017.85 1017.93 1018.04
1014.84 1015.02 1015.26 1015.54 1015.85 1016.18 1016.51 1016.81 1017.06 1017.28 1017.44 1017.57 1017.67 1017.75 1017.83 1017.91 1017.99 1018.07 1018.15 1018.21 1018.25 1018.26 1018.22 1018.15 1018.04 1017.90 1017.74 1017.56 1017.39 1017.25 1017.13 1017.04 1017.00 1016.99 1017.01 1017.05 1017.10 1017.15 1017.21 1017.28 1017.36 1017.46 1017.59
1014.15 1014.34 1014.56 1014.81 1015.10 1015.40 1015.70 1015.99 1016.25 1016.47 1016.65 1016.79 1016.91 1017.00 1017.09 1017.18 1017.27 1017.36 1017.46 1017.56 1017.64 1017.71 1017.74 1017.73 1017.68 1017.58 1017.45 1017.29 1017.11 1016.94 1016.78 1016.65 1016.55 1016.50 1016.47 1016.48 1016.50 1016.54 1016.60 1016.67 1016.76 1016.87 1017.01
1013.56 1013.74 1013.93 1014.16 1014.40 1014.66 1014.92 1015.18 1015.41 1015.63 1015.81 1015.96 1016.09 1016.20 1016.30 1016.39 1016.50 1016.61 1016.72 1016.85 1016.97 1017.08 1017.16 1017.21 1017.21 1017.16 1017.07 1016.93 1016.76 1016.59 1016.41 1016.24 1016.10 1016.00 1015.93 1015.88 1015.87 1015.88 1015.90 1015.96 1016.04 1016.14 1016.29
1013.17 1013.33 1013.49 1013.67 1013.87 1014.07 1014.28 1014.49 1014.69 1014.87 1015.04 1015.18 1015.31 1015.43 1015.54 1015.64 1015.75 1015.87 1016.00 1016.13 1016.27 1016.41 1016.52 1016.61 1016.66 1016.65 1016.60 1016.49 1016.35 1016.18 1016.00 1015.82 1015.65 1015.50 1015.38 1015.28 1015.21 1015.17 1015.16 1015.17 1015.22 1015.31 1015.45
1013.05 1013.17 1013.30 1013.44 1013.58 1013.72 1013.86 1014.01 1014.16 1014.30 1014.44 1014.57 1014.68 1014.80 1014.90 1015.00 1015.11 1015.21 1015.33 1015.46 1015.60 1015.73 1015.86 1015.96 1016.03 1016.06 1016.04 1015.97 1015.86 1015.71 1015.54 1015.35 1015.17 1014.99 1014.82 1014.68 1014.55 1014.45 1014.38 1014.35 1014.36 1014.42 1014.54
1013.17 1013.26 1013.35 1013.44 1013.53 1013.61 1013.70 1013.78 1013.87 1013.97 1014.07 1014.17 1014.27 1014.36 1014.45 1014.53 1014.61 1014.69 1014.78 1014.87 1014.97 1015.08 1015.18 1015.27 1015.35 1015.39 1015.39 1015.36 1015.28 1015.16 1015.01 1014.83 1014.64 1014.45 1014.25 1014.07 1013.89 1013.74 1013.62 1013.54 1013.51 1013.53 1013.62
1013.48 1013.53 1013.59 1013.64 1013.69 1013.73 1013.76 1013.79 1013.84 1013.89 1013.95 1014.01 1014.08 1014.15 1014.21 1014.25 1014.29 1014.32 1014.34 1014.37 1014.41 1014.46 1014.51 1014.56 1014.61 1014.64 1014.66 1014.64 1014.58 1014.50 1014.37 1014.22 1014.04 1013.85 1013.64 1013.43 1013.23 1013.04 1012.88 1012.76 1012.69 1012.69 1012.75
1013.84 1013.87 1013.91 1013.94 1013.96 1013.97 1013.97 1013.97 1013.98 1014.00 1014.03 1014.06 1014.10 1014.13 1014.14 1014.14 1014.11 1014.07 1014.02 1013.96 1013.91 1013.87 1013.84 1013.83 1013.83 1013.83 1013.83 1013.81 1013.77 1013.71 1013.62 1013.49 1013.34 1013.16 1012.97 1012.76 1012.55 1012.35 1012.17 1012.03 1011.94 1011.91 1011.95
1014.16 1014.17 1014.19 1014.22 1014.23 1014.24 1014.24 1014.23 1014.22 1014.22 1014.23 1014.24 1014.24 1014.23 1014.19 1014.13 1014.03 1013.90 1013.76 1013.60 1013.44 1013.29 1013.17 1013.07 1012.99 1012.94 1012.90 1012.87 1012.83 1012.78 1012.72 1012.63 1012.51 1012.37 1012.20 1012.02 1011.83 1011.64 1011.47 1011.33 1011.23 1011.19 1011.21
Thickness
5746 5745 5743 5742 5741 5741 5740 5738 5737 5736 5735 5734 5734 5737 5737 5738 5738 5736 5734 5732 5730 5729 5727 5724 5722 5720 5719 5719 5718 5717 5717 5716 5715 5714 5714 5713 5713 5712 5712 5712 5712 5711 5711
5743 5742 5742 5741 5740 5740 5739 5738 5737 5736 5736 5736 5736 5736 5735 5736 5736 5735 5732 5729 5728 5727 5726 5724 5722 5720 5719 5718 5717 5716 5715 5715 5714 5714 5713 5712 5711 5711 5711 5711 5710 5710 5710
5741 5740 5741 5740 5739 5739 5739 5738 5737 5737 5736 5737 5736 5736 5734 5734 5734 5733 5731 5729 5727 5726 5725 5724 5722 5720 5719 5717 5716 5715 5714 5714 5713 5713 5712 5711 5710 5710 5709 5709 5709 5709 5709
5740 5739 5739 5738 5738 5739 5739 5738 5737 5736 5736 5736 5735 5735 5735 5734 5733 5733 5732 5731 5729 5727 5725 5723 5722 5720 5718 5717 5716 5714 5713 5713 5712 5711 5711 5710 5709 5708 5708 5708 5708 5708 5708
5738 5738 5737 5736 5737 5738 5738 5737 5734 5734 5733 5734 5734 5734 5734 5734 5734 5734 5733 5732 5731 5728 5726 5724 5722 5720 5718 5717 5716 5714 5713 5712 5711 5711 5710 5709 5708 5707 5707 5707 5707 5707 5707
5736 5736 5736 5736 5736 5736 5735 5733 5732 5733 5731 5732 5734 5734 5734 5735 5734 5734 5733 5733 5732 5729 5728 5726 5722 5720 5718 5717 5716 5715 5713 5712 5711 5710 5709 5708 5707 5706 5706 5706 5706 5706 5706
5735 5734 5735 5735 5735 5733 5732 5732 5730 5731 5731 5732 5730 5730 5733 5735 5735 5734 5733 5732 5731 5730 5728 5726 5723 5721 5719 5717 5716 5715 5714 5712 5711 5710 5708 5707 5707 5706 5705 5705 5705 5705 5705
5734 5735 5733 5734 5733 5732 5731 5731 5730 5728 5731 5732 5727 5724 5723 5724 5729 5735 5732 5730 5730 5729 5727 5726 5724 5721 5720 5719 5717 5715 5713 5712 5711 5709 5708 5707 5706 5705 5705 5705 5705 5705 5705
5734 5732 5733 5733 5733 5733 5730 5730 5728 5727 5726 5729 5730 5724 5718 5715 5719 5726 5729 5728 5727 5725 5726 5725 5723 5721 5720 5718 5717 5714 5712 5711 5710 5709 5708 5707 5706 5705 5705 5704 5704 5704 5704
5734 5733 5733 5732 5731 5731 5729 5729 5727 5728 5725 5724 5727 5727 5724 5720 5715 5714 5720 5724 5724 5723 5722 5723 5721 5720 5718 5717 5715 5712 5711 5709 5708 5707 5706 5706 5705 5705 5704 5704 5703 5703 5702
5735 5734 5733 5732 5731 5730 5728 5727 5727 5726 5725 5723 5724 5725 5724 5723 5721 5715 5711 5715 5718 5721 5721 5719 5718 5717 5715 5714 5712 5709 5708 5707 5706 5705 5705 5704 5704 5704 5703 5703 5702 5702 5702
5735 5735 5734 5732 5730 5729 5727 5726 5725 5724 5722 5722 5721 5722 5720 5718 5716 5715 5711 5710 5712 5716 5718 5717 5716 5714 5713 5711 5709 5706 5704 5703 5702 5701 5701 5702 5702 5702 5702 5702 5701 5701 5701
5736 5736 5735 5732 5730 5728 5726 5725 5723 5722 5721 5720 5718 5718 5719 5718 5717 5714 5710 5708 5709 5712 5714 5714 5714 5712 5710 5708 5704 5702 5701 5699 5699 5698 5698 5698 5698 5699 5699 5699 5699 5699 5699
5740 5738 5735 5732 5729 5727 5725 5723 5722 5720 5718 5717 5716 5715 5714 5715 5715 5713 5708 5704 5700 5702 5708 5710 5712 5711 5707 5704 5701 5699 5697 5695 5695 5694 5694 5694 5694 5695 5695 5696 5696 5697 5697
5741 5738 5735 5731 5728 5726 5724 5722 5718 5718 5717 5714 5713 5712 5710 5711 5711 5710 5708 5704 5697 5690 5693 5703 5705 5707 5704 5701 5698 5695 5694 5692 5691 5690 5690 5690 5690 5690 5691 5692 5692 5693 5693
5740 5736 5733 5730 5727 5724 5722 5719 5717 5716 5714 5712 5710 5708 5707 5707 5707 5707 5705 5702 5699 5692 5688 5695 5698 5702 5701 5698 5695 5692 5691 5689 5688 5688 5688 5688 5687 5687 5687 5687 5687 5688 5688
5737 5734 5732 5729 5726 5723 5720 5717 5714 5714 5711 5709 5707 5705 5703 5702 5700 5700 5700 5698 5695 5692 5686 5689 5694 5696 5696 5693 5691 5689 5687 5686 5686 5686 5686 5686 5685 5684 5684 5684 5684 5684 5684
5735 5733 5730 5727 5724 5722 5719 5715 5711 5710 5708 5706 5704 5702 5700 5699 5696 5694 5692 5691 5691 5690 5686 5683 5685 5687 5688 5689 5688 5686 5685 5684 5685 5685 5685 5684 5683 5682 5681 5680 5680 5680 5680
5732 5730 5727 5724 5721 5720 5717 5714 5711 5708 5707 5705 5703 5700 5698 5695 5692 5691 5689 5687 5686 5686 5685 5681 5681 5682 5683 5684 5683 5682 5682 5681 5681 5682 5682 5682 5680 5679 5678 5677 5677 5677 5676
5728 5725 5723 5721 5719 5716 5714 5712 5709 5706 5704 5703 5701 5699 5697 5694 5691 5688 5686 5683 5681 5679 5678 5677 5677 5677 5678 5680 5679 5676 5675 5676 5677 5678 5679 5679 5678 5676 5675 5675 5674 5674 5673
5724 5722 5719 5716 5714 5711 5710 5707 5705 5702 5699 5698 5697 5696 5694 5692 5689 5686 5683 5681 5678 5674 5672 5671 5671 5671 5672 5672 5672 5673 5670 5671 5673 5673 5673 5674 5674 5674 5672 5671 5670 5670 5670
5717 5715 5713 5710 5707 5706 5704 5701 5698 5696 5694 5692 5690 5690 5688 5686 5685 5682 5680 5677 5674 5670 5668 5666 5665 5665 5666 5667 5667 5666 5664 5662 5661 5667 5666 5667 5669 5669 5670 5669 5669 5669 5668
5708 5706 5703 5702 5699 5698 5695 5693 5690 5688 5686 5684 5683 5680 5680 5681 5679 5677 5674 5671 5668 5666 5663 5660 5659 5660 5660 5661 5659 5658 5656 5655 5656 5659 5657 5658 5661 5662 5664 5665 5666 5666 5665
5695 5693 5692 5692 5690 5688 5685 5683 5679 5676 5675 5674 5672 5670 5668 5668 5667 5665 5664 5663 5662 5660 5658 5654 5653 5655 5655 5653 5651 5650 5649 5649 5651 5652 5650 5648 5652 5653 5658 5659 5660 5660 5660
5682 5681 5682 5680 5677 5675 5672 5669 5666 5664 5662 5662 5661 5659 5657 5655 5654 5651 5650 5650 5651 5652 5652 5651 5650 5649 5648 5646 5643 5639 5639 5637 5640 5644 5646 5644 5646 5647 5649 5652 5654 5654 5654
5669 5669 5668 5666 5665 5662 5660 5656 5652 5650 5648 5647 5646 5645 5643 5640 5637 5635 5633 5634 5635 5638 5637 5639 5638 5639 5638 5637 5635 5632 5630 5628 5631 5635 5640 5637 5639 5639 5640 5645 5647 5648 5648